| time (UTC) | temp F | wind direction | speed MPH | gust MPH | rain 1hr in | rain 24hr in | rain mn in | humidity % | barometer mb |
| 20260503212630 | 49 | 257 | 0.0 | 3.0 | 0.00 | 0.00 | 0.00 | 53 | 1007.7 |
| 20260503211629 | 49 | 281 | 1.0 | 4.0 | 0.00 | 0.00 | 0.00 | 52 | 1007.7 |
| 20260503210629 | 49 | 281 | 0.0 | 4.0 | 0.00 | 0.00 | 0.00 | 51 | 1007.6 |
| 20260503205628 | 50 | 148 | 1.0 | 3.0 | 0.00 | 0.00 | 0.00 | 52 | 1007.6 |
| 20260503204630 | 50 | 274 | 0.0 | 4.0 | 0.00 | 0.00 | 0.00 | 53 | 1007.5 |
| 20260503203628 | 50 | 286 | 0.0 | 2.0 | 0.00 | 0.00 | 0.00 | 54 | 1007.4 |
| 20260503202628 | 51 | 59 | 0.0 | 2.0 | 0.00 | 0.00 | 0.00 | 56 | 1007.3 |
| 20260503201628 | 51 | 59 | 1.0 | 3.0 | 0.00 | 0.00 | 0.00 | 55 | 1007.4 |
| 20260503200627 | 51 | 85 | 0.0 | 4.0 | 0.00 | 0.00 | 0.00 | 55 | 1007.4 |
| 20260503195627 | 51 | 272 | 0.0 | 3.0 | 0.00 | 0.00 | 0.00 | 56 | 1007.4 |
| 20260503194627 | 52 | 234 | 1.0 | 2.0 | 0.00 | 0.00 | 0.00 | 55 | 1007.5 |
| 20260503193625 | 53 | 283 | 0.0 | 3.0 | 0.00 | 0.00 | 0.00 | 56 | 1007.5 |
| 20260503192626 | 53 | 228 | 1.0 | 4.0 | 0.00 | 0.00 | 0.00 | 54 | 1007.4 |
| 20260503191626 | 53 | 66 | 0.0 | 3.0 | 0.00 | 0.00 | 0.00 | 53 | 1007.6 |
| 20260503190626 | 54 | 251 | 1.0 | 3.0 | 0.00 | 0.00 | 0.00 | 53 | 1007.4 |
| 20260503185625 | 54 | 279 | 1.0 | 4.0 | 0.00 | 0.00 | 0.00 | 53 | 1007.4 |
| 20260503184626 | 54 | 255 | 1.0 | 2.0 | 0.00 | 0.00 | 0.00 | 52 | 1007.4 |
| 20260503183626 | 55 | 266 | 1.0 | 4.0 | 0.00 | 0.00 | 0.00 | 52 | 1007.4 |
| 20260503182625 | 55 | 259 | 0.0 | 4.0 | 0.00 | 0.00 | 0.00 | 51 | 1007.4 |
| 20260503181625 | 56 | 261 | 0.0 | 2.0 | 0.00 | 0.00 | 0.00 | 55 | 1007.2 |
| 20260503180626 | 56 | 261 | 0.0 | 2.0 | 0.00 | 0.00 | 0.00 | 51 | 1007.2 |
| 20260503175624 | 57 | 261 | 0.0 | 2.0 | 0.00 | 0.00 | 0.00 | 50 | 1007.2 |
| 20260503174624 | 57 | 286 | 0.0 | 2.0 | 0.00 | 0.00 | 0.00 | 51 | 1007.1 |
| 20260503173625 | 57 | 288 | 0.0 | 3.0 | 0.00 | 0.00 | 0.00 | 51 | 1007.2 |
| 20260503172624 | 57 | 251 | 2.0 | 4.0 | 0.00 | 0.00 | 0.00 | 51 | 1007.1 |
| 20260503171623 | 58 | 252 | 1.0 | 3.0 | 0.00 | 0.00 | 0.00 | 51 | 1007.1 |
| 20260503171112 | 58 | 264 | 0.0 | 4.0 | 0.00 | 0.00 | 0.00 | 51 | 1007.0 |
| 20260503150621 | 60 | 272 | 3.0 | 6.0 | 0.00 | 0.00 | 0.00 | 55 | 1007.4 |
| 20260503130617 | 62 | 233 | 4.0 | 7.0 | 0.00 | 0.00 | 0.00 | 52 | 1007.6 |
| 20260503110614 | 61 | 0 | 5.0 | 15.0 | 0.00 | 0.00 | 0.00 | 57 | 1007.8 |
| 20260503080916 | 56 | 285 | 4.0 | 10.0 | 0.00 | 0.00 | 0.00 | 71 | 1007.5 |
| 20260503080425 | 56 | 264 | 2.0 | 7.0 | 0.00 | 0.00 | 0.00 | 74 | 1007.4 |
| 20260503080301 | 54 | 214 | 2.0 | 9.0 | 0.00 | 0.00 | 0.00 | 77 | 1007.3 |
| 20260503080206 | 55 | 209 | 3.0 | 6.0 | 0.00 | 0.00 | 0.00 | 76 | 1007.2 |
| 20260503072916 | 53 | 195 | 2.0 | 10.0 | 0.00 | 0.00 | 0.00 | 79 | 1007.1 |
| 20260503071916 | 53 | 283 | 4.0 | 7.0 | 0.00 | 0.00 | 0.00 | 78 | 1007.0 |
| 20260503070915 | 52 | 228 | 3.0 | 7.0 | 0.00 | 0.00 | 0.00 | 81 | 1007.0 |
| 20260503054913 | 48 | 214 | 3.0 | 5.0 | 0.00 | 0.00 | 0.00 | 85 | 1006.5 |
| 20260503053913 | 48 | 61 | 2.0 | 2.0 | 0.00 | 0.00 | 0.00 | 86 | 1006.5 |
| 20260503052914 | 48 | 65 | 0.0 | 0.0 | 0.00 | 0.00 | 0.00 | 84 | 1006.3 |
| 20260503051913 | 47 | 65 | 0.0 | 1.0 | 0.00 | 0.00 | 0.00 | 83 | 1006.1 |
| 20260503050913 | 47 | 65 | 0.0 | 2.0 | 0.00 | 0.00 | 0.00 | 84 | 1006.1 |
| 20260503045912 | 46 | 65 | 0.0 | 1.0 | 0.00 | 0.00 | 0.00 | 84 | 1006.0 |
| 20260503044912 | 45 | 65 | 0.0 | 2.0 | 0.00 | 0.00 | 0.00 | 86 | 1006.0 |
| 20260503043911 | 45 | 65 | 1.0 | 2.0 | 0.00 | 0.00 | 0.00 | 87 | 1005.9 |
| 20260503042911 | 44 | 65 | 0.0 | 2.0 | 0.00 | 0.00 | 0.00 | 87 | 1006.0 |
| 20260503041912 | 44 | 65 | 0.0 | 2.0 | 0.00 | 0.00 | 0.00 | 88 | 1006.1 |
| 20260503040918 | 43 | 281 | 0.0 | 1.0 | 0.00 | 0.00 | 0.00 | 89 | 1005.8 |
| 20260503035911 | 42 | 281 | 1.0 | 2.0 | 0.00 | 0.00 | 0.00 | 90 | 1005.7 |
| 20260503034911 | 42 | 281 | 0.0 | 1.0 | 0.00 | 0.00 | 0.00 | 90 | 1005.5 |
| 20260503033910 | 41 | 281 | 0.0 | 0.0 | 0.00 | 0.00 | 0.00 | 90 | 1005.3 |
| 20260503033123 | 40 | 281 | 0.0 | 0.0 | 0.00 | 0.00 | 0.00 | 88 | 1005.0 |
| 20260503033041 | 40 | 278 | 0.0 | 0.0 | 0.00 | 0.00 | 0.00 | 88 | 1005.3 |
| 20260503032910 | 41 | 281 | 0.0 | 0.0 | 0.00 | 0.00 | 0.00 | 91 | 1005.2 |
| 20260503032851 | 40 | 281 | 0.0 | 1.0 | 0.00 | 0.00 | 0.00 | 90 | 1005.2 |
| 20260503032816 | 40 | 281 | 0.0 | 2.0 | 0.00 | 0.00 | 0.00 | 90 | 1005.0 |
| 20260503022908 | 40 | 278 | 0.0 | 1.0 | 0.00 | 0.00 | 0.00 | 88 | 1005.2 |
| 20260503021909 | 40 | 278 | 0.0 | 2.0 | 0.00 | 0.00 | 0.00 | 88 | 1005.2 |
| 20260503020908 | 40 | 195 | 1.0 | 2.0 | 0.00 | 0.00 | 0.00 | 88 | 1005.2 |
| 20260503015909 | 40 | 259 | 0.0 | 0.0 | 0.00 | 0.00 | 0.00 | 88 | 1005.0 |
| 20260503014908 | 40 | 259 | 0.0 | 0.0 | 0.00 | 0.00 | 0.00 | 88 | 1004.9 |
| 20260503013908 | 40 | 259 | 0.0 | 0.0 | 0.00 | 0.00 | 0.00 | 87 | 1004.9 |
| 20260503012907 | 40 | 259 | 0.0 | 2.0 | 0.00 | 0.00 | 0.00 | 88 | 1005.0 |
| 20260503011906 | 40 | 259 | 0.0 | 1.0 | 0.00 | 0.00 | 0.00 | 86 | 1004.8 |
| 20260503010906 | 41 | 259 | 0.0 | 0.0 | 0.00 | 0.00 | 0.00 | 86 | 1004.9 |
| 20260503005906 | 41 | 259 | 0.0 | 0.0 | 0.00 | 0.00 | 0.00 | 85 | 1005.2 |
| 20260503004909 | 42 | 259 | 0.0 | 0.0 | 0.00 | 0.00 | 0.00 | 84 | 1005.2 |
| 20260503003906 | 42 | 259 | 0.0 | 3.0 | 0.00 | 0.00 | 0.00 | 85 | 1005.2 |
| 20260503002905 | 42 | 259 | 1.0 | 3.0 | 0.00 | 0.00 | 0.00 | 84 | 1005.1 |
| 20260503001905 | 43 | 192 | 1.0 | 2.0 | 0.00 | 0.00 | 0.00 | 84 | 1004.9 |
| 20260503000905 | 43 | 192 | 0.0 | 2.0 | 0.00 | 0.00 | 0.00 | 84 | 1004.9 |
| 20260502235905 | 43 | 192 | 0.0 | 2.0 | 0.00 | 0.00 | 0.00 | 84 | 1004.8 |
| 20260502234905 | 44 | 192 | 1.0 | 2.0 | 0.00 | 0.00 | 0.00 | 84 | 1004.8 |
| 20260502233905 | 44 | 192 | 0.0 | 0.0 | 0.00 | 0.00 | 0.00 | 83 | 1005.0 |
| 20260502232905 | 44 | 192 | 0.0 | 0.0 | 0.00 | 0.00 | 0.00 | 83 | 1005.2 |
| 20260502231904 | 44 | 192 | 0.0 | 0.0 | 0.00 | 0.00 | 0.00 | 82 | 1005.1 |
| 20260502230906 | 44 | 192 | 0.0 | 1.0 | 0.00 | 0.00 | 0.00 | 81 | 1005.1 |
| 20260502225904 | 45 | 192 | 0.0 | 1.0 | 0.00 | 0.00 | 0.00 | 80 | 1005.3 |
| 20260502224905 | 45 | 192 | 0.0 | 2.0 | 0.00 | 0.00 | 0.00 | 79 | 1005.4 |
| 20260502223903 | 46 | 192 | 0.0 | 2.0 | 0.00 | 0.00 | 0.00 | 78 | 1005.6 |
| 20260502222905 | 46 | 192 | 1.0 | 3.0 | 0.00 | 0.00 | 0.00 | 77 | 1005.7 |
| 20260502221904 | 47 | 278 | 0.0 | 3.0 | 0.00 | 0.00 | 0.00 | 78 | 1005.9 |
| 20260502220904 | 47 | 183 | 0.0 | 3.0 | 0.00 | 0.00 | 0.00 | 77 | 1005.7 |
| 20260502215905 | 47 | 183 | 1.0 | 2.0 | 0.00 | 0.00 | 0.00 | 76 | 1005.4 |
| 20260502214904 | 47 | 183 | 0.0 | 3.0 | 0.00 | 0.00 | 0.00 | 77 | 1005.5 |
| 20260502213902 | 47 | 189 | 2.0 | 5.0 | 0.00 | 0.00 | 0.00 | 76 | 1005.6 |